Regional Weather Roundup
Issued by NWS

Home | Current Version | Previous Version | Text Only | Print | Product List | Glossary Off
Versions: 1 2 3 4 5 6 7 8 9 10 11 12 13 14 15 16 17 18 19 20 21 22 23 24 25 26 27 28 29 30 31 32 33 34 35 36 37 38 39 40 41 42 43 44 45 46 47 48 49 50

000
ASUS43 KTOP 200408
RWRKS

WEATHER ROUNDUP FOR KANSAS
NATIONAL WEATHER SERVICE GOODLAND KS
1100 PM CDT SAT APR 19 2014

NOTE:  "FAIR" INDICATES FEW OR NO CLOUDS BELOW 12,000 FEET WITH NO
SIGNIFICANT WEATHER AND/OR OBSTRUCTIONS TO VISIBILITY.

KSZ001>006-013>018-027>032-041>047-200500-
NORTHWEST KANSAS

CITY           SKY/WX    TMP DP  RH WIND       PRES   REMARKS
GOODLAND       CLOUDY    55  50  83 E8        30.03R
HAYS           CLOUDY    70  48  46 SW10      29.99R
HILL CITY      CLOUDY    67  51  56 SW10      29.95F
RUSSELL        MOCLDY    67  50  54 S18       29.96R
$$

KSZ061>065-074>080-084>089-200500-
SOUTHWEST KANSAS

CITY           SKY/WX    TMP DP  RH WIND       PRES   REMARKS
DODGE CITY     CLEAR     62  47  57 S10       30.01R
ELKHART          N/A     59  45  60 S9          N/A
GARDEN CITY    MOCLDY    62  48  60 S9        30.00R
GREAT BEND     MOCLDY    66  50  55 S15       29.98S
LIBERAL        PTCLDY    59  45  58 S7        30.04R
PRATT          PTCLDY    63  48  59 S17       30.02S
$$

KSZ066>073-081>083-090>101-200500-
SOUTHEAST KANSAS

CITY           SKY/WX    TMP DP  RH WIND       PRES   REMARKS
CHANUTE        MOCLDY    61  47  59 S8        30.10R
COFFEYVILLE    MOCLDY    62  47  57 S5        30.10R
HUTCHINSON     CLEAR     66  48  52 S15       30.02R
MEDICINE LODGE   N/A     65  50  58 S9        30.01S
NEWTON         CLEAR     64  45  48 S12       30.07S
PARSONS        CLOUDY    65  46  50 SE6       30.10S
WICHITA INTL   PTCLDY    66  48  52 S15       30.04R
WICHITA JABRA  CLEAR     63  49  60 S10       30.05R
WICHITA MCCONL CLEAR     65  50  58 SE13      30.06R
WINFIELD       CLEAR     62  49  62 SE8       30.07S
$$

KSZ007>012-019>026-033>040-048>060-102>105-200500-
NORTHEAST KANSAS

CITY           SKY/WX    TMP DP  RH WIND       PRES   REMARKS
CONCORDIA      PTCLDY    68  50  52 S15       29.98R
EMPORIA        CLEAR     61  46  57 S12       30.06R
LAWRENCE       PTCLDY    59  45  59 SE6       30.08R
MANHATTAN      PTCLDY    66  46  48 S9        30.03R
OLATHE IND     PTCLDY    62  44  51 SE8       30.10S
OLATHE EXE     PTCLDY    61  44  53 SE7       30.09S
SALINA         PTCLDY    68  48  48 S14       30.01R
TOPEKA BILLARD MOCLDY    65  45  48 SE9       30.07R
TOPEKA FORBES  PTCLDY    63  44  50 SE9       30.07R
$$



USA.gov is the U.S. government's official web portal to all federal, state and local government web resources and services.